When you browse on this site, cookies collect data to enhance your experience and personalize the content and advertising you see.
Visit our Privacy Policy to learn more. By continuing to use the site, you agree to this use of cookies and data.
  • In Hungary
  • List of Countries
  • For 7 days
  • Water Temperature
  • Satellite Maps
  • Weather Map
  • News
  • Weather Widgets
  • user-avatar
    Login

    Hourly Weather Sugar Land

    Today, 20 January, Sunday

    Time Temperature Precipitation Wind Pressure Humidity
    00:00 +2°C° 0 mm 6 mps 768 mmHg 52%
    01:00 +1°C° 0 mm 5 mps 768 mmHg 53%
    02:00 +1°C° 0 mm 5 mps 768 mmHg 54%
    03:00 0°C° 0 mm 5 mps 769 mmHg 54%
    04:00 0°C° 0 mm 5 mps 769 mmHg 55%
    05:00 0°C° 0 mm 4 mps 769 mmHg 56%
    06:00 -1°C° 0 mm 4 mps 770 mmHg 57%
    07:00 0°C° 0 mm 4 mps 770 mmHg 56%
    08:00 0°C° 0 mm 4 mps 770 mmHg 55%
    09:00 0°C° 0 mm 4 mps 771 mmHg 54%
    10:00 +3°C° 0 mm 4 mps 771 mmHg 50%
    11:00 +5°C° 0 mm 4 mps 771 mmHg 46%
    12:00 +7°C° 0 mm 3 mps 771 mmHg 42%
    13:00 +8°C° 0 mm 3 mps 770 mmHg 40%
    14:00 +10°C° 0 mm 2 mps 769 mmHg 37%
    15:00 +12°C° 0 mm 2 mps 768 mmHg 35%
    16:00 +10°C° 0 mm 2 mps 768 mmHg 37%
    17:00 +10°C° 0 mm 1 mps 768 mmHg 39%
    18:00 +9°C° 0 mm 1 mps 767 mmHg 42%
    19:00 +9°C° 0 mm 1 mps 767 mmHg 44%
    20:00 +8°C° 0 mm 1 mps 767 mmHg 45%
    21:00 +8°C° 0 mm 1 mps 767 mmHg 47%
    22:00 +8°C° 0 mm 1 mps 767 mmHg 50%
    23:00 +7°C° 0 mm 1 mps 767 mmHg 52%

    Tomorrow, 21 January, Monday

    Time Temperature Precipitation Wind Pressure Humidity
    00:00 +7°C° 0 mm 1 mps 767 mmHg 54%
    01:00 +7°C° 0 mm 1 mps 767 mmHg 56%
    02:00 +7°C° 0 mm 1 mps 767 mmHg 58%
    03:00 +7°C° 0 mm 1 mps 767 mmHg 61%
    04:00 +7°C° 0 mm 1 mps 766 mmHg 64%
    05:00 +7°C° 0 mm 1 mps 766 mmHg 67%
    06:00 +7°C° 0 mm 1 mps 766 mmHg 70%
    07:00 +7°C° 0 mm 2 mps 766 mmHg 70%
    08:00 +8°C° 0 mm 2 mps 766 mmHg 71%
    09:00 +10°C° 0 mm 3 mps 766 mmHg 71%
    10:00 +12°C° 0 mm 4 mps 766 mmHg 68%
    11:00 +14°C° 0 mm 5 mps 765 mmHg 65%
    12:00 +16°C° 0 mm 6 mps 765 mmHg 62%
    13:00 +16°C° 0 mm 6 mps 764 mmHg 64%
    14:00 +16°C° 0 mm 6 mps 763 mmHg 66%
    15:00 +16°C° 0 mm 6 mps 762 mmHg 67%
    16:00 +16°C° 0 mm 5 mps 762 mmHg 70%
    17:00 +15°C° 0 mm 5 mps 762 mmHg 73%
    18:00 +14°C° 0 mm 5 mps 761 mmHg 76%
    19:00 +14°C° 0 mm 5 mps 761 mmHg 79%
    20:00 +14°C° 0 mm 5 mps 761 mmHg 82%
    21:00 +13°C° 0 mm 5 mps 761 mmHg 85%
    22:00 +13°C° 0 mm 5 mps 761 mmHg 86%
    23:00 +13°C° 0 mm 5 mps 761 mmHg 86%

    Day after tomorrow, 22 January, Tuesday

    Time Temperature Precipitation Wind Pressure Humidity
    00:00 +14°C° 0 mm 5 mps 760 mmHg 86%
    01:00 +14°C° 0 mm 5 mps 760 mmHg 85%
    02:00 +15°C° 0 mm 5 mps 759 mmHg 85%
    03:00 +15°C° 0 mm 5 mps 759 mmHg 84%
    04:00 +16°C° 0 mm 5 mps 758 mmHg 84%
    05:00 +16°C° 0 mm 5 mps 758 mmHg 84%
    06:00 +16°C° 0 mm 5 mps 758 mmHg 84%
    07:00 +16°C° 0 mm 5 mps 758 mmHg 84%
    08:00 +16°C° 0 mm 5 mps 758 mmHg 84%
    09:00 +17°C° 0 mm 5 mps 759 mmHg 84%
    10:00 +17°C° 0 mm 5 mps 759 mmHg 82%
    11:00 +19°C° 0 mm 5 mps 759 mmHg 81%
    12:00 +19°C° 0 mm 5 mps 759 mmHg 80%
    13:00 +19°C° 0.1 mm 5 mps 758 mmHg 80%
    14:00 +19°C° 0.1 mm 4 mps 758 mmHg 81%
    15:00 +19°C° 0.1 mm 4 mps 757 mmHg 82%
    16:00 +19°C° 0.2 mm 3 mps 757 mmHg 84%
    17:00 +19°C° 0.2 mm 3 mps 758 mmHg 86%
    18:00 +18°C° 0.2 mm 2 mps 758 mmHg 88%
    19:00 +18°C° 0.7 mm 3 mps 759 mmHg 90%
    20:00 +18°C° 0.7 mm 3 mps 759 mmHg 91%
    21:00 +18°C° 0.7 mm 3 mps 760 mmHg 92%
    22:00 +15°C° 0.4 mm 5 mps 761 mmHg 82%
    23:00 +13°C° 0.4 mm 6 mps 761 mmHg 72%

    23 January, Wednesday

    Time Temperature Precipitation Wind Pressure Humidity
    00:00 +10°C° 0.4 mm 7 mps 762 mmHg 62%
    01:00 +10°C° 0 mm 7 mps 762 mmHg 61%
    02:00 +9°C° 0 mm 8 mps 763 mmHg 60%
    03:00 +7°C° 0 mm 8 mps 763 mmHg 59%
    04:00 +6°C° 0.1 mm 7 mps 763 mmHg 58%
    05:00 +7°C° 0.1 mm 6 mps 764 mmHg 58%
    06:00 +5°C° 0.1 mm 6 mps 764 mmHg 58%
    07:00 +5°C° 0.2 mm 6 mps 765 mmHg 57%
    08:00 +5°C° 0.2 mm 6 mps 765 mmHg 57%
    09:00 +6°C° 0.2 mm 5 mps 766 mmHg 56%
    10:00 +7°C° 0 mm 5 mps 766 mmHg 53%
    11:00 +8°C° 0 mm 5 mps 766 mmHg 50%
    12:00 +8°C° 0 mm 5 mps 766 mmHg 47%
    13:00 +9°C° 0 mm 5 mps 765 mmHg 45%
    14:00 +10°C° 0 mm 6 mps 764 mmHg 44%
    15:00 +10°C° 0 mm 6 mps 764 mmHg 43%
    16:00 +10°C° 0 mm 5 mps 764 mmHg 46%
    17:00 +9°C° 0 mm 5 mps 765 mmHg 48%
    18:00 +8°C° 0 mm 4 mps 765 mmHg 51%
    19:00 +7°C° 0 mm 4 mps 766 mmHg 52%
    20:00 +8°C° 0 mm 3 mps 766 mmHg 54%
    21:00 +7°C° 0 mm 3 mps 767 mmHg 55%
    22:00 +7°C° 0 mm 3 mps 767 mmHg 55%
    23:00 +5°C° 0 mm 3 mps 767 mmHg 56%

    24 January, Thursday

    Time Temperature Precipitation Wind Pressure Humidity
    00:00 +5°C° 0 mm 3 mps 767 mmHg 56%
    01:00 +6°C° 0 mm 2 mps 767 mmHg 56%
    02:00 +5°C° 0 mm 2 mps 766 mmHg 57%
    03:00 +5°C° 0 mm 2 mps 766 mmHg 57%
    04:00 +6°C° 0 mm 1 mps 766 mmHg 57%
    05:00 +5°C° 0 mm 1 mps 766 mmHg 58%
    06:00 +5°C° 0 mm 1 mps 766 mmHg 58%
    07:00 +6°C° 0 mm 1 mps 766 mmHg 56%
    08:00 +7°C° 0 mm 1 mps 767 mmHg 53%
    09:00 +8°C° 0 mm 1 mps 767 mmHg 51%
    10:00 +9°C° 0 mm 1 mps 767 mmHg 46%
    11:00 +11°C° 0 mm 1 mps 767 mmHg 41%
    12:00 +13°C° 0 mm 2 mps 767 mmHg 36%
    13:00 +14°C° 0 mm 2 mps 766 mmHg 35%
    14:00 +15°C° 0 mm 2 mps 765 mmHg 34%
    15:00 +16°C° 0 mm 2 mps 765 mmHg 34%
    16:00 +15°C° 0 mm 2 mps 765 mmHg 38%
    17:00 +13°C° 0 mm 2 mps 765 mmHg 42%
    18:00 +12°C° 0 mm 1 mps 765 mmHg 45%
    19:00 +12°C° 0 mm 1 mps 765 mmHg 48%
    20:00 +10°C° 0 mm 2 mps 766 mmHg 51%
    21:00 +9°C° 0 mm 2 mps 766 mmHg 54%
    22:00 +9°C° 0 mm 2 mps 766 mmHg 55%
    23:00 +8°C° 0 mm 2 mps 767 mmHg 57%

    25 January, Friday

    Time Temperature Precipitation Wind Pressure Humidity
    00:00 +8°C° 0 mm 2 mps 767 mmHg 58%
    01:00 +8°C° 0 mm 2 mps 767 mmHg 59%
    02:00 +7°C° 0 mm 2 mps 767 mmHg 59%
    03:00 +7°C° 0 mm 2 mps 767 mmHg 60%
    04:00 +7°C° 0 mm 2 mps 768 mmHg 61%
    05:00 +7°C° 0 mm 3 mps 768 mmHg 62%
    06:00 +7°C° 0 mm 3 mps 769 mmHg 63%
    07:00 +6°C° 0 mm 4 mps 770 mmHg 63%
    08:00 +7°C° 0 mm 4 mps 771 mmHg 64%
    09:00 +7°C° 0 mm 4 mps 771 mmHg 65%
    10:00 +8°C° 0 mm 4 mps 771 mmHg 59%
    11:00 +10°C° 0 mm 4 mps 771 mmHg 53%
    12:00 +11°C° 0 mm 3 mps 771 mmHg 47%
    13:00 +12°C° 0 mm 3 mps 770 mmHg 43%
    14:00 +14°C° 0 mm 2 mps 769 mmHg 40%
    15:00 +15°C° 0 mm 2 mps 769 mmHg 37%
    16:00 +14°C° 0 mm 2 mps 768 mmHg 41%
    17:00 +13°C° 0 mm 2 mps 768 mmHg 45%
    18:00 +12°C° 0 mm 2 mps 767 mmHg 49%
    19:00 +10°C° 0 mm 2 mps 767 mmHg 56%
    20:00 +9°C° 0 mm 3 mps 767 mmHg 63%
    21:00 +9°C° 0 mm 3 mps 767 mmHg 70%
    22:00 +9°C° 0 mm 3 mps 767 mmHg 74%
    23:00 +8°C° 0 mm 3 mps 766 mmHg 78%
    Show more